Simultaneous Nadir Overpasses (SNOs) Predictions

Prediction of SNOs between GOES-16 and NOAA-20 Satellite Orbit:

Table of predicted SNOs for the next 14.0 days since TLE Epoch: 1/8/2022
Index Date Time (GOES-16) GOES-16 Lat,Lon NOAA-20 Lat,Lon Distance(km) Time Diff (sec)
1 01/08/2022 06:12:38 -0.04, -75.18 -0.84, -71.77 388.86 80
2 01/09/2022 18:31:52 0.05, -75.19 -0.37, -77.06 213.14 80
3 01/10/2022 18:15:46 0.04, -75.20 0.66, -72.53 304.92 80
4 01/12/2022 06:37:32 -0.04, -75.21 0.55, -77.78 293.49 80
5 01/13/2022 06:16:06 -0.03, -75.22 -0.48, -73.25 224.72 80
6 01/14/2022 18:38:00 0.03, -75.24 -0.73, -78.54 376.59 80
7 01/15/2022 18:21:55 0.02, -75.25 0.31, -74.00 141.95 80
8 01/17/2022 06:43:40 -0.02, -75.27 0.90, -79.25 455.48 80
9 01/18/2022 06:22:15 -0.01, -75.28 -0.13, -74.72 63.17 80
10 01/20/2022 18:25:24 0.02, -75.32 -0.03, -75.48 18.71 80
